SB KEPS @ AMSAT $ORB11006.O Orbital Elements 11006.OSCAR
HR AMSAT ORBITAL ELEMENTS FOR OSCAR SATELLITES FROM WA5QGD FORT WORTH,TX January 6, 2011 Send Subscribe/unsubscribe to KEPS at http://www.amsat.org/mailman/listinfo/keps BID: ORB11006.O TO ALL RADIO AMATEURS BT
Satellite: AO-07 Catalog number: 07530 Epoch time: 11005.91035881 Element set: 0972 Inclination: 101.3954 deg RA of node: 018.8522 deg Eccentricity: 0.0011818 Arg of perigee: 237.2593 deg Mean anomaly: 122.7338 deg Mean motion: 12.53580729 rev/day Decay rate: -2.7e-07 rev/day^2 Epoch rev: 65385 Checksum: 297
Satellite: FO-29 Catalog number: 24278 Epoch time: 11006.47119740 Element set: 476 Inclination: 098.5214 deg RA of node: 172.5877 deg Eccentricity: 0.0350214 Arg of perigee: 316.6552 deg Mean anomaly: 040.7519 deg Mean motion: 13.52956548 rev/day Decay rate: 4.0e-07 rev/day^2 Epoch rev: 71059 Checksum: 312
Satellite: SO-33 Catalog number: 25509 Epoch time: 11005.59854408 Element set: 875 Inclination: 031.4340 deg RA of node: 083.8532 deg Eccentricity: 0.0354030 Arg of perigee: 259.7927 deg Mean anomaly: 096.2585 deg Mean motion: 14.28353863 rev/day Decay rate: 2.32e-06 rev/day^2 Epoch rev: 63701 Checksum: 309
Satellite: RS-22 Catalog number: 27939 Epoch time: 11006.66829483 Element set: 875 Inclination: 097.8642 deg RA of node: 228.1907 deg Eccentricity: 0.0014324 Arg of perigee: 133.2489 deg Mean anomaly: 226.9911 deg Mean motion: 14.63497157 rev/day Decay rate: 1.36e-06 rev/day^2 Epoch rev: 38871 Checksum: 341
Satellite: VO-52 Catalog number: 28650 Epoch time: 11006.58943328 Element set: 687 Inclination: 097.6664 deg RA of node: 056.7815 deg Eccentricity: 0.0026496 Arg of perigee: 333.5164 deg Mean anomaly: 026.4684 deg Mean motion: 14.81886992 rev/day Decay rate: 4.00e-06 rev/day^2 Epoch rev: 30681 Checksum: 339
Satellite: SO-67 Catalog number: 35870 Epoch time: 11006.66380666 Element set: 446 Inclination: 097.3056 deg RA of node: 055.1171 deg Eccentricity: 0.0004605 Arg of perigee: 097.5341 deg Mean anomaly: 048.6629 deg Mean motion: 15.21276505 rev/day Decay rate: 9.33e-06 rev/day^2 Epoch rev: 7238 Checksum: 307
Satellite: HO-68 Catalog number: 36122 Epoch time: 11006.79778227 Element set: 0 Inclination: 100.4422 deg RA of node: 069.9064 deg Eccentricity: 0.0007209 Arg of perigee: 231.1302 deg Mean anomaly: 128.9169 deg Mean motion: 13.16283586 rev/day Decay rate: -4.5e-07 rev/day^2 Epoch rev: 5100 Checksum: 268
/EX SB KEPS @ AMSAT $ORB11006.D Orbital Elements 11006.MICROS
HR AMSAT ORBITAL ELEMENTS FOR THE MICROSATS FROM WA5QGD FORT WORTH,TX January 6, 2011 Send Subscribe/unsubscribe to KEPS at http://www.amsat.org/mailman/listinfo/keps BID: ORB11006.D TO ALL RADIO AMATEURS BT
Satellite: UO-11 Catalog number: 14781 Epoch time: 11005.80232715 Element set: 436 Inclination: 098.0290 deg RA of node: 062.8382 deg Eccentricity: 0.0008259 Arg of perigee: 308.5068 deg Mean anomaly: 051.5385 deg Mean motion: 14.79878214 rev/day Decay rate: 4.29e-06 rev/day^2 Epoch rev: 44177 Checksum: 308
Satellite: AO-16 Catalog number: 20439 Epoch time: 11005.83704760 Element set: 0086 Inclination: 098.3620 deg RA of node: 321.0722 deg Eccentricity: 0.0010217 Arg of perigee: 288.3164 deg Mean anomaly: 071.6919 deg Mean motion: 14.31890308 rev/day Decay rate: 1.9e-07 rev/day^2 Epoch rev: 09438 Checksum: 284
Satellite: LO-19 Catalog number: 20442 Epoch time: 11006.50108127 Element set: 994 Inclination: 098.3244 deg RA of node: 326.6981 deg Eccentricity: 0.0011023 Arg of perigee: 278.5684 deg Mean anomaly: 081.4236 deg Mean motion: 14.32118434 rev/day Decay rate: -2.5e-07 rev/day^2 Epoch rev: 9465 Checksum: 286
Satellite: AO-27 Catalog number: 22825 Epoch time: 11005.88434952 Element set: 0718 Inclination: 098.5122 deg RA of node: 313.8509 deg Eccentricity: 0.0009080 Arg of perigee: 037.2580 deg Mean anomaly: 322.9262 deg Mean motion: 14.29321823 rev/day Decay rate: -3.7e-07 rev/day^2 Epoch rev: 90100 Checksum: 285
Satellite: IO-26 Catalog number: 22826 Epoch time: 11005.84335013 Element set: 454 Inclination: 098.5067 deg RA of node: 314.3407 deg Eccentricity: 0.0009479 Arg of perigee: 032.3254 deg Mean anomaly: 327.8508 deg Mean motion: 14.29580801 rev/day Decay rate: -1.1e-07 rev/day^2 Epoch rev: 90111 Checksum: 277
Satellite: GO-32 Catalog number: 25397 Epoch time: 11006.07164611 Element set: 375 Inclination: 098.3174 deg RA of node: 007.3874 deg Eccentricity: 0.0001952 Arg of perigee: 054.8797 deg Mean anomaly: 305.2560 deg Mean motion: 14.23193202 rev/day Decay rate: -1.22e-06 rev/day^2 Epoch rev: 64890 Checksum: 289
Satellite: NO-44 Catalog number: 26931 Epoch time: 11006.57732990 Element set: 648 Inclination: 067.0524 deg RA of node: 039.9398 deg Eccentricity: 0.0006641 Arg of perigee: 273.1830 deg Mean anomaly: 086.8499 deg Mean motion: 14.29629375 rev/day Decay rate: 1.14e-06 rev/day^2 Epoch rev: 48382 Checksum: 336
Satellite: SO-50 Catalog number: 27607 Epoch time: 11005.65801414 Element set: 0360 Inclination: 064.5589 deg RA of node: 101.4898 deg Eccentricity: 0.0054021 Arg of perigee: 000.7431 deg Mean anomaly: 359.3726 deg Mean motion: 14.71626507 rev/day Decay rate: 1.0e-08 rev/day^2 Epoch rev: 43217 Checksum: 271
Satellite: CO-55 Catalog number: 27844 Epoch time: 11005.92157320 Element set: 0017 Inclination: 098.7079 deg RA of node: 016.9766 deg Eccentricity: 0.0009443 Arg of perigee: 310.7327 deg Mean anomaly: 049.3042 deg Mean motion: 14.20759434 rev/day Decay rate: 8.0e-07 rev/day^2 Epoch rev: 38987 Checksum: 312
Satellite: CO-57 Catalog number: 27848 Epoch time: 11005.55847493 Element set: 0964 Inclination: 098.7136 deg RA of node: 015.7576 deg Eccentricity: 0.0009454 Arg of perigee: 316.5065 deg Mean anomaly: 043.5377 deg Mean motion: 14.20546119 rev/day Decay rate: 8.2e-07 rev/day^2 Epoch rev: 38977 Checksum: 342
Satellite: AO-51 Catalog number: 28375 Epoch time: 11006.01577868 Element set: 865 Inclination: 098.0787 deg RA of node: 353.1586 deg Eccentricity: 0.0082937 Arg of perigee: 201.6717 deg Mean anomaly: 158.0951 deg Mean motion: 14.40718369 rev/day Decay rate: 3.2e-07 rev/day^2 Epoch rev: 34271 Checksum: 328
Satellite: CP3 Catalog number: 31129 Epoch time: 11005.63408376 Element set: 0766 Inclination: 097.9170 deg RA of node: 039.1216 deg Eccentricity: 0.0101774 Arg of perigee: 326.3340 deg Mean anomaly: 033.1412 deg Mean motion: 14.52359273 rev/day Decay rate: 1.21e-06 rev/day^2 Epoch rev: 19724 Checksum: 269
Satellite: CO-65 Catalog number: 32785 Epoch time: 11005.21436984 Element set: 0881 Inclination: 097.8730 deg RA of node: 072.0754 deg Eccentricity: 0.0014773 Arg of perigee: 351.8719 deg Mean anomaly: 008.2272 deg Mean motion: 14.81802038 rev/day Decay rate: 5.58e-06 rev/day^2 Epoch rev: 14540 Checksum: 310
Satellite: KKS-1 Catalog number: 33493 Epoch time: 11006.60124664 Element set: 194 Inclination: 098.1046 deg RA of node: 133.1367 deg Eccentricity: 0.0019475 Arg of perigee: 200.2956 deg Mean anomaly: 159.7490 deg Mean motion: 14.81271617 rev/day Decay rate: 6.82e-06 rev/day^2 Epoch rev: 10559 Checksum: 295
Satellite: SOHLA-1 Catalog number: 33496 Epoch time: 11006.75092445 Element set: 300 Inclination: 098.0691 deg RA of node: 118.3591 deg Eccentricity: 0.0005482 Arg of perigee: 277.9270 deg Mean anomaly: 082.1332 deg Mean motion: 14.69546368 rev/day Decay rate: 4.6e-07 rev/day^2 Epoch rev: 10477 Checksum: 298
Satellite: TISAT-1 Catalog number: 36799 Epoch time: 11006.59741765 Element set: 468 Inclination: 098.1240 deg RA of node: 073.1255 deg Eccentricity: 0.0016743 Arg of perigee: 079.8159 deg Mean anomaly: 280.4946 deg Mean motion: 14.80282238 rev/day Decay rate: 4.16e-06 rev/day^2 Epoch rev: 2640 Checksum: 316
Satellite: STUDSAT Catalog number: 36801 Epoch time: 11005.97941268 Element set: 0126 Inclination: 098.1270 deg RA of node: 072.3677 deg Eccentricity: 0.0014946 Arg of perigee: 069.7741 deg Mean anomaly: 290.5074 deg Mean motion: 14.79925034 rev/day Decay rate: 1.055e-05 rev/day^2 Epoch rev: 02630 Checksum: 298
Satellite: RAX Catalog number: 37223 Epoch time: 11004.54666099 Element set: 0046 Inclination: 071.9737 deg RA of node: 039.8825 deg Eccentricity: 0.0022634 Arg of perigee: 233.4835 deg Mean anomaly: 126.4234 deg Mean motion: 14.77209942 rev/day Decay rate: 2.57e-06 rev/day^2 Epoch rev: 00672 Checksum: 297
Satellite: OOREOS Catalog number: 37224 Epoch time: 10361.49649035 Element set: 0041 Inclination: 071.9733 deg RA of node: 057.6930 deg Eccentricity: 0.0021329 Arg of perigee: 245.9311 deg Mean anomaly: 113.9603 deg Mean motion: 14.76870385 rev/day Decay rate: 2.32e-06 rev/day^2 Epoch rev: 00552 Checksum: 276
Satellite: FASTSAT Catalog number: 37225 Epoch time: 10339.55430316 Element set: 0021 Inclination: 071.9720 deg RA of node: 106.1057 deg Eccentricity: 0.0019965 Arg of perigee: 280.4841 deg Mean anomaly: 079.4053 deg Mean motion: 14.76483442 rev/day Decay rate: 4.1e-07 rev/day^2 Epoch rev: 00228 Checksum: 266
Satellite: FAST1-2 Catalog number: 37227 Epoch time: 11003.48774389 Element set: 0043 Inclination: 071.9734 deg RA of node: 042.3429 deg Eccentricity: 0.0018842 Arg of perigee: 230.4777 deg Mean anomaly: 129.4699 deg Mean motion: 14.76381197 rev/day Decay rate: 4.8e-07 rev/day^2 Epoch rev: 00655 Checksum: 320
/EX SB KEPS @ AMSAT $ORB11006.W Orbital Elements 11006.WEATHER
HR AMSAT ORBITAL ELEMENTS FOR WEATHER SATELLITES FROM WA5QGD FORT WORTH,TX January 6, 2011 Send Subscribe/unsubscribe to KEPS at http://www.amsat.org/mailman/listinfo/keps BID: ORB11006.W TO ALL RADIO AMATEURS BT
Satellite: NOAA-10 Catalog number: 16969 Epoch time: 11006.15066574 Element set: 347 Inclination: 098.6365 deg RA of node: 038.0020 deg Eccentricity: 0.0012115 Arg of perigee: 343.0049 deg Mean anomaly: 017.0709 deg Mean motion: 14.27439665 rev/day Decay rate: -5.8e-07 rev/day^2 Epoch rev: 26453 Checksum: 287
